Amsterdam, Netherlands

10:15 PM CEST on September 23, 2017 (GMT +0200)
Schiphol

Weather History for EHAM - December, 2011

Change the Weather History Date:

Sunday, December 25, 2011

  Actual Average Record
Temperature  
Mean Temperature 46 °F -  
Max Temperature 51 °F 41 °F 57 °F (2015)
Min Temperature 42 °F 33 °F 23 °F (2010)
Degree Days  
Heating Degree Days 18    
Moisture  
Dew Point 46 °F    
Average Humidity 87    
Maximum Humidity 100    
Minimum Humidity 79    
Precipitation  
Precipitation 0.00 in - - ()
Sea Level Pressure  
Sea Level Pressure 30.31 in    
Wind  
Wind Speed 17 mph ()    
Max Wind Speed 26 mph    
Max Gust Speed 38 mph    
Visibility 6.9 miles    
Events Rain    
Averages and records for this station are not official NWS values.
T = Trace of Precipitation, MM = Missing Value Source: Averaged Metar Reports

Daily Weather History Graph

Daily Weather History Graph

Search for Another Location

Airport or City:

Trip Planner

Search our weather history database for the weather conditions in past years. The results will help you decide how hot, cold, wet, or windy it might be!

Date:

Astronomy

Dec. 25, 2011 Rise Set
Actual Time 8:49 AM CET 4:31 PM CET
Civil Twilight 8:08 AM CET 5:13 PM CET
Nautical Twilight 7:24 AM CET 5:57 PM CET
Astronomical Twilight 6:42 AM CET 6:38 PM CET
Moon 9:11 AM CET (12/25) 5:40 PM CET (12/25)
Length of Visible Light 9h 04m
Length of Day
7h 42m
New Moon, 1% of the Moon is Illuminated
Dec 25
New Moon
Jan 1
First Quarter
Jan 9
Full
Jan 16
Last Quarter
Jan 23
New

Hourly Weather History & Observations

Time (CET) Temp. Windchill Dew Point Humidity Pressure Visibility Wind Dir Wind Speed Gust Speed Precip Events Conditions
12:25 AM 44.6 °F 37.8 °F 42.8 °F 93% 30.27 in 6.2 mi SSW 15.0 mph - N/A   Mostly Cloudy
12:55 AM 44.6 °F 37.4 °F 42.8 °F 93% 30.27 in 6.2 mi SSW 16.1 mph - N/A   Mostly Cloudy
1:00 AM 45 °F - 42 °F 87% 30.29 in 9 mi SSW 17.9 mph - -   Partly Cloudy
1:25 AM 44.6 °F 38.1 °F 42.8 °F 93% 30.27 in 6.2 mi SSW 13.8 mph - N/A   Mostly Cloudy
1:55 AM 46.4 °F 40.1 °F 42.8 °F 87% 30.27 in 6.2 mi SW 15.0 mph - N/A   Mostly Cloudy
2:25 AM 46.4 °F 40.7 °F 42.8 °F 87% 30.27 in 6.2 mi SW 12.7 mph - N/A   Mostly Cloudy
2:55 AM 46.4 °F 40.7 °F 42.8 °F 87% 30.27 in 6.2 mi SW 12.7 mph - N/A   Overcast
3:25 AM 46.4 °F 40.4 °F 44.6 °F 93% 30.27 in 6.2 mi SW 13.8 mph - N/A   Mostly Cloudy
3:55 AM 46.4 °F 39.5 °F 44.6 °F 93% 30.24 in 6.2 mi SW 17.3 mph - N/A   Mostly Cloudy
4:00 AM 47 °F - 44 °F 86% 30.27 in 10 mi SW 17.9 mph - -   Overcast
4:25 AM 48.2 °F - 44.6 °F 87% 30.27 in 6.2 mi WSW 18.4 mph - N/A   Mostly Cloudy
4:55 AM 48.2 °F - 44.6 °F 87% 30.27 in 6.2 mi WSW 18.4 mph - N/A   Mostly Cloudy
5:25 AM 46.4 °F 39.2 °F 46.4 °F 100% 30.24 in 6.2 mi WSW 18.4 mph - N/A Rain Light Rain
5:55 AM 48.2 °F - 46.4 °F 93% 30.24 in 6.2 mi WSW 17.3 mph - N/A   Mostly Cloudy
6:25 AM 48.2 °F - 46.4 °F 93% 30.27 in 6.2 mi WSW 19.6 mph - N/A   Overcast
7:00 AM 48 °F - 46 °F 89% 30.28 in 11 mi WSW 17.9 mph - -   Partly Cloudy
7:25 AM 48.2 °F - 46.4 °F 93% 30.27 in 6.2 mi WSW 17.3 mph - N/A   Overcast
7:55 AM 48.2 °F - 46.4 °F 93% 30.30 in 6.2 mi WSW 15.0 mph - N/A   Mostly Cloudy
8:25 AM 48.2 °F - 46.4 °F 93% 30.30 in 6.2 mi SW 12.7 mph - N/A   Mostly Cloudy
8:55 AM 48.2 °F - 46.4 °F 93% 30.30 in 6.2 mi SW 12.7 mph - N/A   Mostly Cloudy
9:25 AM 48.2 °F - 46.4 °F 93% 30.30 in 6.2 mi SW 13.8 mph - N/A   Mostly Cloudy
9:55 AM 50.0 °F - 46.4 °F 87% 30.30 in 6.2 mi SW 16.1 mph - N/A   Mostly Cloudy
10:00 AM 49 °F - 47 °F 88% 30.32 in 9 mi SW 15.7 mph - -   Overcast
10:25 AM 50.0 °F - 46.4 °F 87% 30.30 in 6.2 mi SW 17.3 mph - N/A   Mostly Cloudy
10:55 AM 50.0 °F - 46.4 °F 87% 30.30 in 6.2 mi WSW 18.4 mph - N/A   Mostly Cloudy
11:25 AM 50.0 °F - 46.4 °F 87% 30.30 in 6.2 mi WSW 20.7 mph - N/A   Mostly Cloudy
11:55 AM 50.0 °F - 46.4 °F 87% 30.33 in 6.2 mi WSW 21.9 mph - N/A   Scattered Clouds
12:25 PM 51.8 °F - 46.4 °F 82% 30.30 in 6.2 mi WSW 21.9 mph - N/A   Partly Cloudy
12:55 PM 51.8 °F - 46.4 °F 82% 30.30 in 6.2 mi WSW 21.9 mph - N/A   Partly Cloudy
1:00 PM 51 °F - 47 °F 80% 30.32 in 15 mi SW 22.4 mph - -   Partly Cloudy
1:25 PM 51.8 °F - 46.4 °F 82% 30.30 in 6.2 mi SW 21.9 mph - N/A   Partly Cloudy
1:55 PM 51.8 °F - 46.4 °F 82% 30.33 in 6.2 mi WSW 21.9 mph - N/A   Scattered Clouds
2:25 PM 51.8 °F - 46.4 °F 82% 30.30 in 6.2 mi WSW 23.0 mph - N/A   Partly Cloudy
2:55 PM 50.0 °F - 46.4 °F 87% 30.33 in 6.2 mi WSW 21.9 mph - N/A   Partly Cloudy
3:25 PM 50.0 °F - 46.4 °F 87% 30.33 in 6.2 mi WSW 21.9 mph - N/A   Partly Cloudy
3:55 PM 50.0 °F - 44.6 °F 82% 30.33 in 6.2 mi WSW 20.7 mph - N/A   Partly Cloudy
4:00 PM 50 °F - 46 °F 79% 30.34 in 16 mi WSW 20.1 mph - -   Scattered Clouds
4:25 PM 50.0 °F - 44.6 °F 82% 30.33 in 6.2 mi WSW 21.9 mph - N/A   Partly Cloudy
4:55 PM 50.0 °F - 44.6 °F 82% 30.33 in 6.2 mi WSW 21.9 mph - N/A   Partly Cloudy
5:25 PM 50.0 °F - 46.4 °F 87% 30.33 in 6.2 mi WSW 23.0 mph 34.5 mph N/A   Mostly Cloudy
5:55 PM 50.0 °F - 44.6 °F 82% 30.33 in 6.2 mi WSW 24.2 mph - N/A   Partly Cloudy
6:25 PM 50.0 °F - 44.6 °F 82% 30.33 in 6.2 mi WSW 21.9 mph - N/A   Partly Cloudy
6:55 PM 50.0 °F - 46.4 °F 87% 30.33 in 6.2 mi WSW 23.0 mph - N/A   Partly Cloudy
7:25 PM 51.8 °F - 46.4 °F 82% 30.36 in 6.2 mi WSW 24.2 mph - N/A   Mostly Cloudy
7:55 PM 51.8 °F - 46.4 °F 82% 30.36 in 6.2 mi WSW 26.5 mph 38.0 mph N/A   Mostly Cloudy
8:25 PM 51.8 °F - 46.4 °F 82% 30.36 in 6.2 mi WSW 23.0 mph - N/A   Mostly Cloudy
8:55 PM 51.8 °F - 46.4 °F 82% 30.36 in 6.2 mi WSW 21.9 mph - N/A   Partly Cloudy
9:25 PM 51.8 °F - 46.4 °F 82% 30.39 in 6.2 mi WSW 26.5 mph - N/A   Partly Cloudy
9:55 PM 50.0 °F - 46.4 °F 87% 30.39 in 6.2 mi WSW 23.0 mph - N/A   Partly Cloudy
10:00 PM 50 °F - 47 °F 84% 30.39 in 9 mi WSW 24.6 mph - -   Partly Cloudy
10:25 PM 50.0 °F - 46.4 °F 87% 30.39 in 6.2 mi WSW 25.3 mph - N/A   Partly Cloudy
10:55 PM 50.0 °F - 46.4 °F 87% 30.39 in 6.2 mi WSW 23.0 mph - N/A   Scattered Clouds
11:25 PM 51.8 °F - 46.4 °F 82% 30.39 in 6.2 mi WSW 23.0 mph - N/A   Scattered Clouds
11:55 PM 51.8 °F - 48.2 °F 88% 30.39 in 6.2 mi WSW 23.0 mph - N/A   Mostly Cloudy